Flag for Germany Weather past 2 weeks in Papenburg, Lower Saxony, Germany

Now
64 °F

Sunny.


Feels Like: 64 °F
Forecast: 59 / 75 °F
Wind: 5 mph from East

Location: Emden-Koenigspolder

Current Time: Sep 17, 2014 at 10:24:37 AM

Latest Report: Sep 17, 2014 at 10:00 AM


Visibility: 5 mi

Pressure: 29.98 "Hg

Humidity: 81%

Dew point: 58 °F

Location of PapenburgLocation

Historic Weather in Papenburg — Graph

°F

Papenburg temperature yesterday

Maximum temperature yesterday: 74 °F (at 4:00 PM)
Minimum temperature yesterday: 56 °F (at 4:00 AM)
Average temperature yesterday: 65 °F

Past Weeks' High & Low Weather Summary

 TemperatureHumidityPressure
High75 °F (Sep 5, 7:00 PM)100% (Sep 6, 9:00 AM)30.31 "Hg (Sep 6, 9:00 AM)
Low48 °F (Sep 3, 7:00 AM)58% (Sep 3, 2:00 PM)29.87 "Hg (Sep 6, 4:00 PM)
Average62 °F85%30.09 "Hg
* Reported Sep 2 9:00 AM — Sep 17 9:00 AM, Papenburg, Weather by CustomWeather, © 2014

Note: Actual official high and low records may vary slightly from our data, if they occured in-between our weather recording intervals... More about our weather records

Advertising

Papenburg weather history for previous 24 hours

 ConditionsComfort  
Time TempWeatherWind HumidityBarometerVisibility
9:00 AM
Sep 17
61 °FFog.6 mph86%29.99 "Hg4 mi
8:00 AM58 °FFog.3 mph91%29.98 "Hg3 mi
7:00 AM59 °FFog.5 mph91%29.98 "Hg3 mi
6:00 AM59 °FFog.2 mph92%29.97 "Hg3 mi
4:00 AM60 °FFog.2 mph92%29.98 "Hg3 mi
3:00 AM62 °FFog.3 mph90%29.99 "Hg3 mi
2:00 AM62 °FFog.2 mph89%29.99 "Hg3 mi
1:00 AM63 °FFog.5 mph88%29.99 "Hg3 mi
12:00 AM64 °FFog.5 mph86%29.99 "Hg4 mi
11:00 PM
Sep 16
65 °FFog.5 mph85%29.99 "Hg4 mi
10:00 PM63 °FFog.3 mph88%30.00 "Hg3 mi
9:00 PM64 °FFog.3 mph87%29.99 "Hg4 mi
8:00 PM66 °FFog.3 mph83%29.98 "Hg4 mi
7:00 PM72 °FSunny.3 mph71%29.97 "Hg6 mi
6:00 PM74 °FSunny.5 mph64%29.98 "Hg7 mi
5:00 PM74 °FPassing clouds.6 mph63%29.98 "Hg6 mi
4:00 PM74 °FPartly sunny.8 mph60%29.99 "Hg7 mi
3:00 PM74 °FPassing clouds.7 mph62%30.00 "Hg7 mi
2:00 PM74 °FOvercast.6 mph62%30.01 "Hg7 mi
1:00 PM72 °FPassing clouds.7 mph66%30.03 "Hg6 mi
12:00 PM69 °FMild.5 mph72%30.03 "Hg6 mi
11:00 AM66 °FOvercast.N/AN/A30.04 "HgN/A
10:00 AM64 °FFog.6 mph88%30.04 "Hg4 mi
Weather by CustomWeather, © 2014

See weather overviewHow to use our weather pages